Total_Precipitation_Accumulation
0.02 0.03 0.06 0.08 0.10 0.12 0.17 0.21 0.29 0.34 0.27 0.31 0.48 0.65 0.75 0.85 1.09 1.23 1.24 1.18 1.23 1.55 2.01 2.18 2.49 2.97 3.79 4.58 5.31 5.47 5.85 5.44 4.81 4.27 3.86 3.74 3.58 3.27 3.15 3.03 2.96 2.84 2.60 2.51
0.05 0.08 0.10 0.06 0.07 0.10 0.14 0.19 0.29 0.30 0.22 0.27 0.49 0.79 0.93 0.98 0.97 1.04 1.09 1.14 1.23 1.61 2.09 2.42 2.94 3.34 3.37 3.93 4.67 4.75 4.50 4.34 3.93 3.60 3.45 3.28 3.24 2.90 2.73 2.63 2.76 2.55 2.39 2.48
0.07 0.09 0.07 0.05 0.08 0.14 0.16 0.20 0.24 0.23 0.22 0.32 0.56 1.02 1.29 1.14 0.86 0.77 0.82 0.92 1.05 1.40 1.91 2.33 2.75 3.20 3.19 3.58 3.69 3.34 3.21 3.33 3.30 3.16 3.08 2.98 3.00 2.80 2.57 2.46 2.54 2.36 2.17 2.23
0.05 0.06 0.05 0.06 0.08 0.10 0.12 0.11 0.11 0.12 0.21 0.41 0.59 1.27 1.63 1.34 1.00 0.80 0.83 0.99 1.05 1.16 1.37 1.65 1.98 2.41 2.62 2.73 2.66 2.64 2.63 2.71 2.92 2.93 2.73 2.57 2.35 2.31 2.29 2.23 2.33 2.35 2.10 2.00
0.05 0.05 0.05 0.06 0.07 0.07 0.09 0.07 0.08 0.15 0.23 0.44 0.65 1.05 1.53 1.44 1.32 1.11 0.96 1.00 0.95 0.98 1.05 1.19 1.28 1.50 1.78 2.05 2.14 2.15 2.46 2.59 2.61 2.59 2.57 2.64 2.40 2.28 2.29 2.43 2.68 2.61 2.26 1.92
0.06 0.06 0.06 0.05 0.06 0.07 0.07 0.08 0.17 0.33 0.49 0.88 0.86 0.97 1.40 1.25 1.13 1.10 0.95 0.81 0.76 0.78 0.83 1.01 1.04 1.08 1.21 1.37 1.53 1.67 2.00 2.25 2.31 2.26 2.26 2.35 2.41 2.45 2.30 2.30 2.40 2.35 2.21 1.99
0.15 0.13 0.10 0.06 0.07 0.08 0.08 0.13 0.43 0.86 1.17 1.34 0.92 0.87 1.08 0.93 0.92 1.02 0.80 0.55 0.52 0.62 0.65 0.83 0.83 0.86 0.98 1.02 1.14 1.38 1.63 1.82 1.92 1.98 2.06 2.13 2.35 2.35 2.17 2.00 2.09 2.13 2.02 1.92
0.17 0.20 0.11 0.06 0.07 0.08 0.09 0.11 0.29 0.53 0.72 0.90 0.94 1.26 1.20 0.78 0.74 0.66 0.49 0.39 0.36 0.53 0.60 0.64 0.60 0.62 0.76 0.85 0.95 1.14 1.32 1.44 1.56 1.76 1.97 1.97 2.12 2.00 1.90 2.07 1.97 1.87 1.70 1.78
0.08 0.08 0.06 0.06 0.07 0.08 0.08 0.07 0.10 0.18 0.29 0.60 1.02 1.36 1.16 0.75 0.68 0.54 0.39 0.33 0.38 0.43 0.56 0.55 0.49 0.52 0.57 0.64 0.74 0.96 1.26 1.33 1.36 1.46 1.68 1.78 1.77 1.80 1.92 2.14 2.08 1.91 1.84 1.75
0.05 0.03 0.05 0.06 0.07 0.08 0.07 0.08 0.09 0.17 0.29 0.50 0.87 1.25 1.39 1.14 0.81 0.55 0.47 0.45 0.55 0.55 0.65 0.69 0.57 0.55 0.58 0.59 0.71 0.84 1.02 1.25 1.43 1.39 1.38 1.39 1.65 1.72 1.87 1.98 1.90 1.89 1.89 1.93
0.04 0.03 0.04 0.06 0.08 0.09 0.09 0.10 0.10 0.13 0.22 0.37 0.72 0.99 0.92 0.92 0.71 0.57 0.58 0.69 0.57 0.54 0.61 0.69 0.54 0.53 0.54 0.63 0.73 0.85 0.99 1.26 1.42 1.30 1.30 1.40 1.57 1.68 1.75 1.93 1.92 1.89 1.92 2.01
0.05 0.04 0.04 0.09 0.12 0.11 0.11 0.12 0.12 0.16 0.19 0.21 0.39 0.65 0.56 0.64 0.63 0.72 0.75 0.70 0.63 0.64 0.66 0.71 0.67 0.76 0.79 0.88 0.91 0.96 1.03 1.19 1.29 1.28 1.33 1.40 1.51 1.60 1.69 1.79 1.90 1.96 1.96 2.05
0.06 0.05 0.07 0.22 0.33 0.24 0.16 0.12 0.13 0.14 0.14 0.19 0.40 0.68 0.57 0.63 0.65 0.71 0.73 0.70 0.79 0.85 0.82 0.80 0.87 1.01 0.98 0.99 1.10 1.11 1.17 1.22 1.31 1.41 1.40 1.37 1.44 1.45 1.52 1.66 1.76 1.89 1.97 2.06
0.08 0.07 0.08 0.23 0.35 0.38 0.28 0.18 0.17 0.15 0.15 0.20 0.31 0.56 0.54 0.65 0.93 0.88 0.91 0.87 0.80 0.85 0.89 0.83 0.88 0.97 1.01 1.06 1.19 1.28 1.27 1.23 1.28 1.33 1.37 1.41 1.44 1.50 1.62 1.73 1.82 1.92 1.94 1.99
0.09 0.07 0.06 0.11 0.18 0.21 0.23 0.22 0.20 0.15 0.13 0.20 0.29 0.45 0.60 0.72 0.98 0.86 0.84 0.92 1.01 0.92 0.90 0.86 0.89 0.97 1.12 1.15 1.12 1.16 1.22 1.24 1.36 1.37 1.33 1.41 1.54 1.58 1.63 1.66 1.71 1.79 1.82 1.78
0.15 0.12 0.11 0.11 0.14 0.15 0.18 0.19 0.17 0.12 0.11 0.11 0.23 0.46 0.65 0.75 0.87 0.87 0.74 0.78 1.00 0.99 0.91 0.93 1.02 1.13 1.14 1.04 1.01 1.03 1.00 1.09 1.28 1.39 1.49 1.59 1.59 1.51 1.59 1.64 1.69 1.73 1.79 1.88
0.29 0.23 0.23 0.21 0.17 0.19 0.27 0.23 0.19 0.16 0.15 0.16 0.29 0.46 0.64 0.80 0.75 0.83 0.81 0.75 0.74 0.79 0.84 0.95 1.06 1.08 1.09 1.12 1.08 0.98 0.90 1.03 1.34 1.44 1.46 1.66 1.77 1.68 1.75 1.78 1.80 1.79 1.83 1.99
0.39 0.41 0.34 0.30 0.33 0.39 0.31 0.27 0.26 0.28 0.29 0.26 0.30 0.43 0.65 0.87 0.82 0.79 0.81 0.79 0.70 0.59 0.69 0.83 0.91 0.94 0.98 1.02 1.04 1.01 1.01 1.06 1.32 1.53 1.62 1.90 2.07 1.93 1.93 1.96 1.98 2.03 2.14 2.20
0.40 0.49 0.50 0.45 0.47 0.49 0.43 0.39 0.41 0.50 0.62 0.51 0.52 0.65 0.72 0.71 0.76 0.84 0.79 0.72 0.66 0.64 0.69 0.75 0.87 0.95 1.07 1.22 1.21 1.19 1.27 1.38 1.55 1.73 1.88 2.14 2.36 2.47 2.43 2.28 2.34 2.43 2.43 2.40
0.36 0.48 0.59 0.61 0.68 0.77 0.71 0.58 0.53 0.68 1.12 0.91 0.74 0.77 0.79 0.80 1.02 1.03 0.75 0.66 0.62 0.65 0.75 0.90 1.07 1.11 1.16 1.35 1.37 1.40 1.52 1.76 1.94 1.93 1.96 2.17 2.42 2.53 2.50 2.47 2.63 2.73 2.63 2.53
0.58 0.60 0.63 0.69 0.79 0.80 0.73 0.66 0.71 1.23 1.64 1.20 1.02 1.02 1.06 1.07 1.03 0.90 0.81 0.82 0.72 0.70 0.81 0.86 0.90 1.04 1.17 1.31 1.44 1.63 1.71 1.86 1.97 2.03 2.04 2.15 2.38 2.66 2.61 2.63 2.70 2.78 2.76 2.77
0.82 0.82 0.80 0.84 1.07 1.22 0.80 0.72 1.10 1.49 1.36 1.43 1.42 1.36 1.28 1.12 0.94 0.84 0.84 0.90 0.80 0.79 0.86 0.91 0.86 0.96 1.15 1.37 1.61 1.73 1.76 1.85 2.02 2.06 2.05 2.11 2.37 2.49 2.55 2.71 2.76 2.85 2.94 2.91
0.99 1.07 1.05 1.14 1.35 1.25 0.99 1.06 1.13 1.22 1.36 1.41 1.36 1.37 1.31 1.23 1.10 1.00 0.98 0.96 0.92 0.97 0.96 1.04 1.06 1.07 1.19 1.38 1.61 1.84 1.89 1.89 1.85 1.83 1.84 1.96 2.15 2.26 2.41 2.52 2.46 2.52 2.66 2.63
1.15 1.00 1.24 1.57 1.54 1.38 1.23 1.17 1.15 1.15 1.23 1.19 1.12 1.09 1.08 1.08 1.05 1.03 1.06 1.12 1.12 1.17 1.15 1.17 1.27 1.28 1.30 1.39 1.58 1.77 1.81 1.83 1.82 1.76 1.74 1.86 2.11 2.23 2.31 2.37 2.33 2.38 2.43 2.48
1.46 1.39 1.60 2.01 1.96 1.76 1.59 1.40 1.34 1.22 1.22 1.19 1.09 1.06 1.01 0.95 0.96 0.98 0.96 1.05 1.11 1.16 1.19 1.20 1.28 1.36 1.36 1.40 1.58 1.72 1.78 1.85 1.91 1.89 1.88 2.01 2.09 2.17 2.33 2.40 2.42 2.41 2.38 2.35
1.47 1.72 2.03 2.28 2.09 1.99 1.92 1.52 1.44 1.47 1.34 1.22 1.21 1.18 1.09 0.97 0.95 0.97 0.98 1.04 1.11 1.18 1.30 1.35 1.40 1.41 1.39 1.41 1.53 1.67 1.85 2.02 2.08 2.02 2.01 2.01 1.99 2.04 2.06 2.08 2.05 2.00 1.92 1.91